Location: Newark
(15.4608°S, 41.1635°W)
Time: 21:23:02
(UTC+00:00)

Explorer 11/Cluster Stage 4 - Pass Details

Date: 12 August 2021
Orbit: 467 x 1256 km, 28.8° (Epoch: 24 September)

Event Time Altitude Azimuth Distance (km) Brightness Sun altitude
Rises 22:17:01 0° 237° (WSW) 3,346 10.5 -24.5°
Reaches altitude 10° 22:20:17 10° 222° (SW) 2,250 9.3 -25.3°
Enters shadow 22:23:16 21° 190° (S) 1,508 8.0 -26.0°
